Tracking 19192 objects as of 18-Jun-2018
HD Live streaming from Space Station
objects crossing your sky now

FENGYUN 1C DEB

Track FENGYUN 1C DEB now!
10-day predictions


NORAD ID: 30836
Int'l Code: 1999-025AVW
Perigee: 849.8 km
Apogee: 890.2 km
Inclination: 99.1 °
Period: 102.2 minutes
Semi major axis: 7240 km
RCS: 0.0097 m2 (small)
Launch date: May 10, 1999
Source: People's Republic of China (PRC)
Launch site: Taiyaun Space Center, China (TSC)

Note: This is SATELLITE DEBRIS
aabbcc
Your satellite tracking list
Your tracking list is empty




NASA's NSSDC Master Catalog

Two Line Element Set (TLE):
1 30836U 99025AVW 18168.52646452 -.00000005  00000-0  22975-4 0  9998
2 30836  99.0500 193.6760 0027913  33.1976 327.0937 14.08981112581233
Source of the keplerian elements: AFSPC